Walnut Ridge, AR

5:40 AM CST on December 03, 2016 (GMT -0600)
Walnut Ridge Regional

Weather History for KARG - October, 2012

Change the Weather History Date:

Tuesday, October 23, 2012

  Actual Average Record
Temperature  
Mean Temperature 70 °F -  
Max Temperature 80 °F 68 °F 84 °F (2000)
Min Temperature 59 °F 48 °F 33 °F (1997)
Cooling Degree Days 4    
Growing Degree Days 20 (Base 50)    
Moisture  
Dew Point 57 °F    
Average Humidity 67    
Maximum Humidity 82    
Minimum Humidity 50    
Precipitation  
Precipitation 0.00 in - - ()
Sea Level Pressure  
Sea Level Pressure 29.99 in    
Wind  
Wind Speed 11 mph (South)    
Max Wind Speed 22 mph    
Max Gust Speed 30 mph    
Visibility 10 miles    
Events      
Averages and records for this station are not official NWS values.
T = Trace of Precipitation, MM = Missing Value Source: NWS Daily Summary

Daily Weather History Graph

Daily Weather History Graph

Search for Another Location

Airport or City:

Trip Planner

Search our weather history database for the weather conditions in past years. The results will help you decide how hot, cold, wet, or windy it might be!

Date:

Astronomy

Oct. 23, 2012 Rise Set
Actual Time 7:18 AM CDT 6:17 PM CDT
Civil Twilight 6:52 AM CDT 6:43 PM CDT
Nautical Twilight 6:22 AM CDT 7:13 PM CDT
Astronomical Twilight 5:52 AM CDT 7:42 PM CDT
Moon 2:51 PM CDT (10/23) 1:21 AM CDT (10/23)
Length of Visible Light 11h 51m
Length of Day
10h 58m
Waxing Gibbous, 67% of the Moon is Illuminated
Oct 23
Waxing Gibbous
Oct 29
Full
Nov 6
Last Quarter
Nov 13
New
Nov 20
First Quarter

Hourly Weather History & Observations

Time (CDT) Temp. Heat Index Dew Point Humidity Pressure Visibility Wind Dir Wind Speed Gust Speed Precip Events Conditions
12:15 AM 64.4 °F - 51.8 °F 64% 30.00 in 10.0 mi South 9.2 mph - N/A   Clear
12:35 AM 62.6 °F - 51.8 °F 68% 30.00 in 10.0 mi South 10.4 mph - N/A   Clear
1:15 AM 62.6 °F - 51.8 °F 68% 30.00 in 10.0 mi South 9.2 mph - N/A   Clear
1:55 AM 60.8 °F - 51.8 °F 72% 30.00 in 4.0 mi South 5.8 mph - N/A   Clear
2:15 AM 59.0 °F - 51.8 °F 77% 30.00 in 10.0 mi South 8.1 mph - N/A   Clear
2:55 AM 62.6 °F - 51.8 °F 68% 30.01 in 10.0 mi South 10.4 mph - N/A   Clear
3:15 AM 62.6 °F - 51.8 °F 68% 30.00 in 10.0 mi South 9.2 mph - N/A   Clear
3:35 AM 62.6 °F - 51.8 °F 68% 30.00 in 10.0 mi South 9.2 mph - N/A   Clear
3:55 AM 62.6 °F - 51.8 °F 68% 30.00 in 10.0 mi South 5.8 mph - N/A   Clear
4:15 AM 60.8 °F - 51.8 °F 72% 30.00 in 10.0 mi South 3.5 mph - N/A   Mostly Cloudy
4:35 AM 60.8 °F - 53.6 °F 77% 30.00 in 10.0 mi SSE 3.5 mph - N/A   Scattered Clouds
4:55 AM 60.8 °F - 53.6 °F 77% 30.01 in 10.0 mi South 5.8 mph - N/A   Scattered Clouds
5:15 AM 60.8 °F - 53.6 °F 77% 30.01 in 10.0 mi SSE 5.8 mph - N/A   Mostly Cloudy
5:36 AM 60.8 °F - 53.6 °F 77% 30.01 in 10.0 mi South 8.1 mph - N/A   Mostly Cloudy
5:55 AM 60.8 °F - 53.6 °F 77% 30.01 in 10.0 mi South 9.2 mph - N/A   Partly Cloudy
6:55 AM 60.8 °F - 53.6 °F 77% 30.03 in 10.0 mi South 8.1 mph - N/A   Scattered Clouds
7:15 AM 60.8 °F - 55.4 °F 82% 30.02 in 10.0 mi South 8.1 mph - N/A   Mostly Cloudy
7:55 AM 62.6 °F - 55.4 °F 77% 30.02 in 10.0 mi South 8.1 mph - N/A   Mostly Cloudy
8:15 AM 62.6 °F - 55.4 °F 77% 30.03 in 10.0 mi South 11.5 mph - N/A   Mostly Cloudy
8:35 AM 62.6 °F - 55.4 °F 77% 30.03 in 10.0 mi South 11.5 mph - N/A   Scattered Clouds
9:15 AM 64.4 °F - 57.2 °F 77% 30.03 in 10.0 mi South 13.8 mph - N/A   Mostly Cloudy
9:35 AM 68.0 °F - 59.0 °F 73% 30.03 in 10.0 mi South 15.0 mph - N/A   Mostly Cloudy
9:55 AM 68.0 °F - 57.2 °F 68% 30.04 in 10.0 mi SSW 16.1 mph 20.7 mph N/A   Mostly Cloudy
10:15 AM 68.0 °F - 59.0 °F 73% 30.04 in 10.0 mi SSW 13.8 mph - N/A   Partly Cloudy
10:56 AM 69.8 °F - 60.8 °F 73% 30.03 in 10.0 mi South 15.0 mph - N/A   Partly Cloudy
11:15 AM 71.6 °F - 62.6 °F 73% 30.03 in 10.0 mi South 16.1 mph - N/A   Partly Cloudy
11:35 AM 71.6 °F - 62.6 °F 73% 30.03 in 10.0 mi South 19.6 mph 26.5 mph N/A   Partly Cloudy
11:55 AM 75.2 °F - 62.6 °F 65% 30.02 in 10.0 mi South 19.6 mph 25.3 mph N/A   Clear
12:15 PM 77.0 °F - 64.4 °F 65% 30.02 in 10.0 mi SSW 20.7 mph - N/A   Clear
12:35 PM 78.8 °F - 62.6 °F 57% 30.01 in 10.0 mi SSW 19.6 mph 28.8 mph N/A   Clear
12:55 PM 78.8 °F - 62.6 °F 57% 30.00 in 10.0 mi SSW 21.9 mph 29.9 mph N/A   Clear
1:15 PM 78.8 °F - 62.6 °F 57% 30.00 in 10.0 mi SSW 19.6 mph 26.5 mph N/A   Clear
1:35 PM 78.8 °F - 62.6 °F 57% 29.99 in 10.0 mi South 19.6 mph 25.3 mph N/A   Clear
1:55 PM 78.8 °F - 62.6 °F 57% 29.98 in 10.0 mi South 18.4 mph - N/A   Partly Cloudy
2:15 PM 78.8 °F - 62.6 °F 57% 29.98 in 10.0 mi South 20.7 mph 26.5 mph N/A   Partly Cloudy
2:55 PM 80.6 °F 81.8 °F 62.6 °F 54% 29.96 in 10.0 mi South 19.6 mph 25.3 mph N/A   Clear
3:15 PM 80.6 °F 81.5 °F 60.8 °F 51% 29.96 in 10.0 mi South 20.7 mph 24.2 mph N/A   Clear
3:35 PM 80.6 °F 81.5 °F 60.8 °F 51% 29.96 in 10.0 mi South 18.4 mph 24.2 mph N/A   Clear
3:55 PM 80.6 °F 81.5 °F 60.8 °F 51% 29.96 in 10.0 mi South 16.1 mph - N/A   Clear
4:15 PM 80.6 °F 81.5 °F 60.8 °F 51% 29.95 in 10.0 mi South 16.1 mph - N/A   Clear
4:36 PM 80.6 °F 81.5 °F 60.8 °F 51% 29.95 in 10.0 mi South 18.4 mph 24.2 mph N/A   Clear
4:55 PM 78.8 °F - 59.0 °F 51% 29.95 in 10.0 mi South 15.0 mph 21.9 mph N/A   Clear
5:16 PM 78.8 °F - 59.0 °F 51% 29.95 in 10.0 mi South 12.7 mph - N/A   Clear
5:35 PM 77.0 °F - 57.2 °F 50% 29.95 in 10.0 mi South 12.7 mph - N/A   Clear
5:55 PM 75.2 °F - 57.2 °F 53% 29.96 in 10.0 mi South 9.2 mph - N/A   Clear
6:35 PM 71.6 °F - 57.2 °F 60% 29.96 in 10.0 mi South 8.1 mph - N/A   Clear
6:55 PM 69.8 °F - 57.2 °F 64% 29.97 in 10.0 mi SSE 8.1 mph - N/A   Clear
7:16 PM 69.8 °F - 57.2 °F 64% 29.96 in 10.0 mi SSE 8.1 mph - N/A   Clear
7:35 PM 66.2 °F - 57.2 °F 73% 29.97 in 10.0 mi SSE 8.1 mph - N/A   Clear
7:55 PM 66.2 °F - 57.2 °F 73% 29.97 in 10.0 mi SSE 8.1 mph - N/A   Clear
8:16 PM 66.2 °F - 57.2 °F 73% 29.97 in 10.0 mi SSE 8.1 mph - N/A   Clear
8:35 PM 66.2 °F - 57.2 °F 73% 29.97 in 10.0 mi SSE 6.9 mph - N/A   Clear
8:55 PM 66.2 °F - 57.2 °F 73% 29.97 in 10.0 mi SSE 6.9 mph - N/A   Clear
9:15 PM 64.4 °F - 57.2 °F 77% 29.98 in 10.0 mi South 8.1 mph - N/A   Clear
9:35 PM - - - N/A% 29.98 in 10.0 mi South 9.2 mph - N/A   Clear
9:55 PM 64.4 °F - 57.2 °F 77% 29.99 in 10.0 mi South 10.4 mph - N/A   Clear
10:15 PM 64.4 °F - 57.2 °F 77% 30.00 in 10.0 mi SSE 9.2 mph - N/A   Clear
10:35 PM 64.4 °F - 57.2 °F 77% 30.00 in 10.0 mi South 8.1 mph - N/A   Clear
11:35 PM 62.6 °F - 57.2 °F 82% 30.01 in 10.0 mi SSE 5.8 mph - N/A   Clear